SCP
0 0 0 0 0 0 0 0 0 0 0 0 0 0 0 0 0 0 0 0 0 0 0 0 0 0 0 0 0 0 0 0 0 0 0 0 0 0 0 0 0 0 0
0 0 0 0 0 0 0 0 0 0 0 0 0 0 0 0 0 0 0 0 0 0 0 0 0 0 0 0 0 0 0 0 0 0 0 0 0 0 0 0 0 0 0
0 0 0 0 0 0 0 0 0 0 0 0 0 0 0 0 0 0 0 0 0 0 0 0 0 0 0 0 0 0 0 0 0 0 0 0 0 0 0 0 -0 0 0
0 0 0 0 0 0 0 0 0 0 0 0 0 0 0 0 0 0 0 0 0 0 0 0 0 0 0 0 0 0 0 0 0 0 0 0 0 0 0 0 0 0 0
0 0 0 0 0 0 0 0 0 0 0 0 0 0 0 0 0 0 0 0 0 0 0 0 0 0 0 0 0 0 0 0 0 0 0 0 0 0 0 0 0 0 0
0 0 0 0 0 0 0 0 0 0 0 0 0 0 0 0 0 0 0 0 0 0 0 0 0 0 0 0 0 0 0 0 0 0 0 0 0 0 0 0 0 0 -0
0 0 0 0 0 0 0 0 0 0 0 0 0 0 0 0 0 0 0 0 0 0 0 0 0 0 0 0 0 0 0 0 0 0 0 0 0 0 0 0 0 0 0
0 0 0 0 0 0 0 0 0 0 0 0 0 0 0 0 0 0 0 0 0 0 0 0 0 0 0 0 0 0 0 0 0 0 0 0 0 0 0 0 0 0 0
0 0 0 0 0 0 0 0 0 0 0 0 0 0 0 0 0 0 0 0 0 0 0 0 0 0 0 0 0 0 0 0 0 0 0 0 0 0 0 0 0 0 0
0 0 0 0 0 0 0 0 0 0 0 0 0 0 0 0 0 0 0 0 0 0 0 0 0 0 0 0 0 0 0 0 0 0 0 0 0 0 0 0 0 0 0
0 0 0 0 0 0 0 0 0 0 0 0 0 0 0 0 0 0 0 0 0 0 0 0 0 0 0 0 0 0 0 0 0 0 0 0 0 0 0 0 0 0 0
0 0 0 0 0 0 0 0 0 0 0 0 0 0 0 0 0 0 0 0 0 0 0 0 0 0 0 0 0 0 0 0 0 0 0 0 0 0 0 0 0 0 0
0 0 0 0 0 0 0 0 0 0 0 0 0 0 0 0 0 0 0 0 0 0 0 0 0 0 0 0 0 0 0 0 0 0 0 0 0 0 0 0 0 0 0
0 0 0 0 0 0 0 0 0 0 0 0 0 0 0 0 0 0 0 0 0 0 0 0 0 0 0 0 0 0 0 0 0 0 0 0 0 0 0 0 0 0 0
0 0 0 0 0 0 0 0 0 0 0 0 0 0 0 0 0 0 0 0 0 0 0 0 0 0 0 0 0 0 0 0 0 0 0 0 0 0 0 0 0 0 0
0 0 0 0 0 0 0 0 0 0 0 0 0 0 0 0 0 0 0 0 0 0 0 0 0 0 0 0 0 0 0 0 0 0 0 0 0 0 0 0 0 0 0
0 0 0 0 0 0 0 0 0 0 0 0 0 0 0 0 0 0 0 0 0 0 0 0 0 0 0 0 0 0 0 0 0 0 0 0 0 0 0 0 0 0 0
0 0 0 0 0 0 0 0 0 0 0 0 0 0 0 0 0 0 0 0 0 0 0 0 0 0 0 0 0 0 0 0 0 0 0 0 0 0 0 0 0 0 0
0 0 0 0 0 0 0 0 0 0 0 0 0 0 0 0 0 0 0 0 0 0 0 0 0 0 0 0 0 0 0 0 0 0 0 0 0 0 0 0 0 0 0
0 0 0 0 0 0 0 0 0 0 0 0 0 0 0 0 0 0 0 0 0 0 0 0 0 0 0 0 0 0 0 0 0 0 0 0 0 0 0 0 0 0 0
0 0 0 0 0 0 0 0 0 0 0 0 0 0 0 0 0 0 0 0 0 0 0 0 0 0 0 0 0 0 0 0 0 0 0 0 0 0 0 0 0 0 0
0 0 0 0 0 0 0 0 0 0 0 0 0 0 0 0 0 0 0 0 0 0 0 0 0 0 0 0 0 0 0 0 0 0 0 0 0 0 0 0 0 0 0
0 0 0 0 0 0 0 0 0 0 0 0 0 0 0 0 0 0 0 0 0 0 0 0 0 0 0 0 0 0 0 0 0 0 0 0 0 0 0 0 0 0 0
0 0 0 0 0 0 0 0 0 0 0 0 0 0 0 0 0 0 0 0 0 0 0 0 0 0 0 0 0 0 0 0 0 0 0 0 0 0 0 0 0 0 0
0 0 0 0 0 0 0 0 0 0 0 0 0 0 0 0 0 0 0 0 0 0 0 0 0 0 0 0 0 0 0 0 0 0 0 0 0 0 0 0 0 0 0
0 0 0 0 0 0 0 0 0 0 0 0 0 0 0 0 0 0 0 0 0 0 0 0 0 0 0 0 0 0 0 0 0 0 0 0 0 0 0 0 0 0 0
Wind_Speed_500mb
32 31 31 32 31 31 30 30 31 32 30 29 30 28 28 27 27 25 23 22 23 23 21 18 14 11 10 12 13 10 10 5 2 3 4 8 10 10 12 9 12 11 7
38 38 37 37 37 35 33 34 36 36 36 36 34 33 32 31 30 29 27 24 25 25 23 20 17 16 17 16 17 18 14 10 7 6 4 6 8 8 9 10 11 10 7
45 44 44 43 40 37 39 40 41 42 43 40 39 37 37 34 35 34 32 30 28 26 24 23 21 19 18 20 20 21 21 17 10 8 8 8 6 8 5 11 12 13 11
51 49 48 47 44 44 44 45 44 46 46 44 42 39 41 41 40 40 39 36 34 31 28 25 24 22 21 19 19 22 26 29 29 18 6 12 12 11 11 10 11 17 13
57 55 52 51 48 50 51 49 50 51 50 48 48 45 46 47 46 45 44 41 38 36 33 30 28 25 23 22 21 20 20 27 32 34 27 26 23 24 10 7 7 11 14
60 59 59 57 53 56 57 55 55 53 56 52 52 54 53 54 52 52 50 45 42 42 38 37 34 31 28 25 23 21 19 25 26 27 30 44 39 27 19 15 12 16 11
68 65 66 66 62 60 60 60 61 62 61 56 57 61 61 60 58 57 52 49 48 46 43 41 40 36 33 30 27 24 23 27 30 32 26 23 22 30 28 19 20 13 22
74 72 72 74 71 66 65 67 66 69 68 63 61 59 60 59 59 52 49 51 50 49 49 45 43 40 37 34 31 32 30 34 37 35 31 33 36 32 31 26 24 19 22
75 77 78 78 80 75 75 73 73 74 74 70 66 57 22 22 26 28 25 26 31 37 44 48 44 41 40 36 34 36 38 39 38 37 37 34 31 38 32 27 22 19 22
72 73 76 80 84 86 83 83 81 80 78 79 77 76 78 76 41 34 32 29 30 35 36 44 46 44 42 40 39 39 44 44 42 39 35 35 36 36 46 38 30 27 36
76 74 72 73 80 88 91 89 90 88 88 86 85 85 82 82 84 88 69 66 59 53 45 42 45 47 49 49 48 45 43 44 41 38 42 38 40 44 41 43 37 40 42
79 81 77 77 76 80 85 91 94 98 96 94 91 93 92 81 80 83 89 91 84 74 61 52 53 55 57 53 54 49 51 50 43 33 31 32 37 39 36 56 50 56 48
84 84 82 82 82 78 78 81 91 99 101 103 98 97 100 103 95 96 82 84 81 80 67 58 58 59 58 56 54 53 54 49 44 39 37 40 42 44 47 52 54 55 49
77 78 79 81 81 77 77 75 78 84 89 98 100 101 100 105 103 102 100 88 79 80 72 75 63 56 59 60 60 56 55 54 50 43 36 24 29 37 43 46 50 51 51
70 73 74 76 76 75 73 76 79 80 75 80 85 92 97 100 106 108 100 97 91 67 71 84 72 62 60 64 65 61 57 55 50 44 38 25 26 34 37 43 45 44 42
67 73 74 75 76 77 72 74 76 79 81 79 77 83 95 92 98 103 101 97 99 95 81 73 64 64 59 66 69 66 59 56 54 47 44 32 31 37 42 43 42 39 43
48 57 67 72 71 74 73 74 77 78 82 82 81 92 107 91 97 95 97 93 96 91 88 85 75 78 72 74 73 72 66 62 58 50 49 43 32 35 37 35 33 37 36
48 48 50 63 69 74 78 79 82 79 84 85 82 85 85 87 94 96 95 97 98 97 91 84 77 84 88 89 77 75 72 68 62 56 53 47 43 40 42 41 36 33 33
49 50 51 52 59 67 76 81 83 88 88 87 86 86 86 88 94 91 97 104 104 101 96 94 87 95 95 97 84 85 75 69 64 62 56 51 47 42 41 34 33 33 36
48 50 51 55 56 60 69 79 83 86 91 88 84 84 83 79 87 93 105 115 114 104 106 104 100 100 103 107 95 88 82 72 67 61 60 54 49 41 38 34 34 36 38
50 49 55 55 58 63 65 70 80 86 83 90 91 89 85 79 87 87 91 119 121 123 103 105 104 107 114 96 92 90 80 79 71 66 62 57 52 45 39 37 38 37 37
53 58 53 58 60 61 65 62 66 80 86 87 87 91 91 92 97 100 102 111 125 106 109 111 104 108 121 101 92 99 87 81 67 70 59 58 52 46 39 39 39 40 37
59 59 60 61 62 62 60 64 59 67 82 91 91 90 95 100 96 93 87 93 104 137 138 126 98 105 109 87 97 83 93 85 85 68 66 61 55 48 41 40 41 39 35
63 66 67 64 68 67 64 65 66 69 75 83 88 92 94 96 95 92 93 93 104 111 127 120 103 98 87 78 92 82 80 84 76 64 63 61 61 53 45 39 43 38 29
63 66 69 72 72 72 67 64 68 71 84 84 82 84 93 90 95 90 88 85 73 86 94 107 101 72 83 89 89 69 83 85 78 67 68 62 62 55 47 43 42 33 30
63 66 69 70 71 74 68 61 57 65 74 85 85 84 84 86 87 86 81 75 83 64 73 68 79 69 61 60 62 60 67 85 83 64 73 66 53 54 39 46 42 37 34
Wind_Direction_500mb
245 244 243 245 246 249 250 251 251 253 256 258 260 266 270 271 274 278 281 284 286 286 284 283 276 249 261 287 285 288 280 287 309 324 358 9 356 350 352 358 347 338 340
249 249 246 247 248 252 253 256 258 257 257 257 259 264 269 270 272 275 277 277 279 281 278 274 267 247 224 248 270 275 282 259 244 256 295 339 338 340 337 333 334 323 312
257 254 252 251 252 256 256 255 255 258 259 260 263 264 269 271 272 274 273 272 273 276 276 267 261 250 234 228 236 257 267 263 257 245 258 245 312 309 294 313 322 315 278
259 256 253 254 257 256 258 257 257 259 261 262 264 264 265 267 269 270 269 269 271 273 272 265 261 251 242 235 230 244 260 258 281 282 273 271 265 288 266 299 309 310 278
257 258 258 259 256 255 257 260 260 261 261 263 265 265 263 263 265 264 263 264 267 268 265 258 254 251 246 243 241 244 255 266 269 268 278 278 270 260 261 273 297 315 273
259 258 260 261 259 257 257 258 260 260 264 266 268 267 266 265 265 263 263 262 262 262 261 254 248 247 245 243 245 248 253 269 273 266 266 264 263 269 271 295 285 291 12
259 259 261 262 260 259 260 260 262 263 262 262 269 270 271 269 268 266 265 262 260 260 258 253 245 245 245 246 245 247 257 269 270 266 268 263 273 273 252 265 273 282 336
261 260 260 263 265 263 261 261 261 262 262 261 260 268 281 280 275 270 265 260 257 257 255 248 244 243 245 243 244 255 263 266 270 276 273 281 266 253 251 245 263 254 264
266 264 262 263 266 265 264 263 262 261 263 264 260 255 260 257 275 279 268 262 257 253 251 245 246 244 239 242 250 262 263 265 269 274 273 267 263 259 246 246 253 257 255
275 272 269 269 267 268 266 265 265 263 262 261 261 256 256 256 270 282 282 264 255 257 257 249 247 248 242 247 256 267 269 259 262 269 269 260 259 256 240 248 242 243 243
278 277 275 272 270 270 268 266 267 266 265 263 261 262 261 259 259 257 270 269 265 264 262 252 250 247 249 253 261 261 263 263 265 258 260 256 255 252 241 234 237 238 248
279 280 281 279 278 275 273 272 269 269 268 267 265 264 260 254 258 258 256 266 268 270 266 257 253 247 251 249 254 258 259 254 256 256 256 262 260 256 232 230 240 246 253
282 285 287 285 283 281 280 278 275 272 270 269 268 266 266 264 262 260 261 266 269 272 268 264 254 254 251 247 251 254 254 249 248 250 264 267 255 246 230 234 239 250 260
288 289 288 288 289 287 283 282 279 276 275 273 272 271 270 269 266 263 261 259 260 266 264 265 260 256 246 249 250 252 250 244 241 242 251 261 255 242 233 236 241 252 260
283 285 285 285 285 286 284 282 280 277 275 275 278 277 274 273 270 267 264 261 257 250 257 262 257 261 249 246 249 248 244 239 234 235 237 246 238 248 244 242 246 252 259
288 284 283 283 283 283 281 281 277 277 272 271 274 281 277 277 273 270 266 262 257 251 249 255 256 256 262 251 247 243 240 236 233 229 234 226 235 242 249 243 248 251 256
298 293 286 282 281 283 283 281 278 276 273 268 267 262 265 273 270 270 267 262 256 253 249 249 252 252 252 252 244 240 234 228 229 229 231 230 232 255 247 245 251 260 272
291 293 292 285 280 279 278 277 276 277 275 272 270 266 264 264 267 268 261 263 258 254 249 242 250 251 249 249 239 235 229 223 227 228 229 228 234 240 246 253 260 268 270
292 290 289 285 281 277 277 277 275 276 275 277 275 272 265 267 262 261 267 260 254 251 247 244 244 250 245 240 227 225 223 218 217 223 230 227 233 240 245 252 258 262 265
305 296 291 287 283 277 271 272 273 274 274 274 277 277 273 270 271 268 270 258 250 249 248 245 239 234 238 239 225 223 215 216 214 215 220 225 225 231 237 246 253 256 262
322 310 300 292 287 282 279 273 272 272 269 274 276 273 268 268 273 270 273 260 253 246 241 233 231 236 233 228 215 215 213 213 210 213 213 219 221 221 228 240 246 253 256
322 322 317 302 294 291 286 279 274 273 273 268 268 272 274 273 277 274 277 277 268 248 240 225 231 234 230 226 220 214 213 202 202 207 213 214 212 217 225 235 242 246 259
328 323 324 321 309 297 294 287 274 270 270 266 267 266 270 273 273 274 274 280 276 265 256 237 234 244 231 231 231 214 209 214 210 211 211 209 211 216 223 232 240 249 261
331 330 326 324 321 315 304 294 287 270 263 265 264 267 269 273 276 271 277 282 280 270 253 242 245 250 238 244 222 215 214 208 207 208 205 206 209 214 219 227 242 252 264
329 332 332 328 324 323 319 306 294 286 274 265 263 266 266 273 274 275 280 282 287 277 269 242 242 255 251 239 212 207 207 203 197 200 203 206 206 209 213 220 236 251 260
334 329 328 330 328 325 326 315 305 296 283 277 272 270 267 267 276 275 273 278 275 287 264 258 256 236 232 226 205 211 211 202 202 195 203 203 204 204 201 219 230 244 254
Wind_Speed_850mb
32 31 31 32 31 31 30 30 31 32 30 29 30 28 28 27 27 25 23 22 23 23 21 18 14 11 10 12 13 10 10 5 2 3 4 8 10 10 12 9 12 11 7
38 38 37 37 37 35 33 34 36 36 36 36 34 33 32 31 30 29 27 24 25 25 23 20 17 16 17 16 17 18 14 10 7 6 4 6 8 8 9 10 11 10 7
45 44 44 43 40 37 39 40 41 42 43 40 39 37 37 34 35 34 32 30 28 26 24 23 21 19 18 20 20 21 21 17 10 8 8 8 6 8 5 11 12 13 11
51 49 48 47 44 44 44 45 44 46 46 44 42 39 41 41 40 40 39 36 34 31 28 25 24 22 21 19 19 22 26 29 29 18 6 12 12 11 11 10 11 17 13
57 55 52 51 48 50 51 49 50 51 50 48 48 45 46 47 46 45 44 41 38 36 33 30 28 25 23 22 21 20 20 27 32 34 27 26 23 24 10 7 7 11 14
60 59 59 57 53 56 57 55 55 53 56 52 52 54 53 54 52 52 50 45 42 42 38 37 34 31 28 25 23 21 19 25 26 27 30 44 39 27 19 15 12 16 11
68 65 66 66 62 60 60 60 61 62 61 56 57 61 61 60 58 57 52 49 48 46 43 41 40 36 33 30 27 24 23 27 30 32 26 23 22 30 28 19 20 13 22
74 72 72 74 71 66 65 67 66 69 68 63 61 59 60 59 59 52 49 51 50 49 49 45 43 40 37 34 31 32 30 34 37 35 31 33 36 32 31 26 24 19 22
75 77 78 78 80 75 75 73 73 74 74 70 66 57 22 22 26 28 25 26 31 37 44 48 44 41 40 36 34 36 38 39 38 37 37 34 31 38 32 27 22 19 22
72 73 76 80 84 86 83 83 81 80 78 79 77 76 78 76 41 34 32 29 30 35 36 44 46 44 42 40 39 39 44 44 42 39 35 35 36 36 46 38 30 27 36
76 74 72 73 80 88 91 89 90 88 88 86 85 85 82 82 84 88 69 66 59 53 45 42 45 47 49 49 48 45 43 44 41 38 42 38 40 44 41 43 37 40 42
79 81 77 77 76 80 85 91 94 98 96 94 91 93 92 81 80 83 89 91 84 74 61 52 53 55 57 53 54 49 51 50 43 33 31 32 37 39 36 56 50 56 48
84 84 82 82 82 78 78 81 91 99 101 103 98 97 100 103 95 96 82 84 81 80 67 58 58 59 58 56 54 53 54 49 44 39 37 40 42 44 47 52 54 55 49
77 78 79 81 81 77 77 75 78 84 89 98 100 101 100 105 103 102 100 88 79 80 72 75 63 56 59 60 60 56 55 54 50 43 36 24 29 37 43 46 50 51 51
70 73 74 76 76 75 73 76 79 80 75 80 85 92 97 100 106 108 100 97 91 67 71 84 72 62 60 64 65 61 57 55 50 44 38 25 26 34 37 43 45 44 42
67 73 74 75 76 77 72 74 76 79 81 79 77 83 95 92 98 103 101 97 99 95 81 73 64 64 59 66 69 66 59 56 54 47 44 32 31 37 42 43 42 39 43
48 57 67 72 71 74 73 74 77 78 82 82 81 92 107 91 97 95 97 93 96 91 88 85 75 78 72 74 73 72 66 62 58 50 49 43 32 35 37 35 33 37 36
48 48 50 63 69 74 78 79 82 79 84 85 82 85 85 87 94 96 95 97 98 97 91 84 77 84 88 89 77 75 72 68 62 56 53 47 43 40 42 41 36 33 33
49 50 51 52 59 67 76 81 83 88 88 87 86 86 86 88 94 91 97 104 104 101 96 94 87 95 95 97 84 85 75 69 64 62 56 51 47 42 41 34 33 33 36
48 50 51 55 56 60 69 79 83 86 91 88 84 84 83 79 87 93 105 115 114 104 106 104 100 100 103 107 95 88 82 72 67 61 60 54 49 41 38 34 34 36 38
50 49 55 55 58 63 65 70 80 86 83 90 91 89 85 79 87 87 91 119 121 123 103 105 104 107 114 96 92 90 80 79 71 66 62 57 52 45 39 37 38 37 37
53 58 53 58 60 61 65 62 66 80 86 87 87 91 91 92 97 100 102 111 125 106 109 111 104 108 121 101 92 99 87 81 67 70 59 58 52 46 39 39 39 40 37
59 59 60 61 62 62 60 64 59 67 82 91 91 90 95 100 96 93 87 93 104 137 138 126 98 105 109 87 97 83 93 85 85 68 66 61 55 48 41 40 41 39 35
63 66 67 64 68 67 64 65 66 69 75 83 88 92 94 96 95 92 93 93 104 111 127 120 103 98 87 78 92 82 80 84 76 64 63 61 61 53 45 39 43 38 29
63 66 69 72 72 72 67 64 68 71 84 84 82 84 93 90 95 90 88 85 73 86 94 107 101 72 83 89 89 69 83 85 78 67 68 62 62 55 47 43 42 33 30
63 66 69 70 71 74 68 61 57 65 74 85 85 84 84 86 87 86 81 75 83 64 73 68 79 69 61 60 62 60 67 85 83 64 73 66 53 54 39 46 42 37 34
Wind_Direction_850mb
245 244 243 245 246 249 250 251 251 253 256 258 260 266 270 271 274 278 281 284 286 286 284 283 276 249 261 287 285 288 280 287 309 324 358 9 356 350 352 358 347 338 340
249 249 246 247 248 252 253 256 258 257 257 257 259 264 269 270 272 275 277 277 279 281 278 274 267 247 224 248 270 275 282 259 244 256 295 339 338 340 337 333 334 323 312
257 254 252 251 252 256 256 255 255 258 259 260 263 264 269 271 272 274 273 272 273 276 276 267 261 250 234 228 236 257 267 263 257 245 258 245 312 309 294 313 322 315 278
259 256 253 254 257 256 258 257 257 259 261 262 264 264 265 267 269 270 269 269 271 273 272 265 261 251 242 235 230 244 260 258 281 282 273 271 265 288 266 299 309 310 278
257 258 258 259 256 255 257 260 260 261 261 263 265 265 263 263 265 264 263 264 267 268 265 258 254 251 246 243 241 244 255 266 269 268 278 278 270 260 261 273 297 315 273
259 258 260 261 259 257 257 258 260 260 264 266 268 267 266 265 265 263 263 262 262 262 261 254 248 247 245 243 245 248 253 269 273 266 266 264 263 269 271 295 285 291 12
259 259 261 262 260 259 260 260 262 263 262 262 269 270 271 269 268 266 265 262 260 260 258 253 245 245 245 246 245 247 257 269 270 266 268 263 273 273 252 265 273 282 336
261 260 260 263 265 263 261 261 261 262 262 261 260 268 281 280 275 270 265 260 257 257 255 248 244 243 245 243 244 255 263 266 270 276 273 281 266 253 251 245 263 254 264
266 264 262 263 266 265 264 263 262 261 263 264 260 255 260 257 275 279 268 262 257 253 251 245 246 244 239 242 250 262 263 265 269 274 273 267 263 259 246 246 253 257 255
275 272 269 269 267 268 266 265 265 263 262 261 261 256 256 256 270 282 282 264 255 257 257 249 247 248 242 247 256 267 269 259 262 269 269 260 259 256 240 248 242 243 243
278 277 275 272 270 270 268 266 267 266 265 263 261 262 261 259 259 257 270 269 265 264 262 252 250 247 249 253 261 261 263 263 265 258 260 256 255 252 241 234 237 238 248
279 280 281 279 278 275 273 272 269 269 268 267 265 264 260 254 258 258 256 266 268 270 266 257 253 247 251 249 254 258 259 254 256 256 256 262 260 256 232 230 240 246 253
282 285 287 285 283 281 280 278 275 272 270 269 268 266 266 264 262 260 261 266 269 272 268 264 254 254 251 247 251 254 254 249 248 250 264 267 255 246 230 234 239 250 260
288 289 288 288 289 287 283 282 279 276 275 273 272 271 270 269 266 263 261 259 260 266 264 265 260 256 246 249 250 252 250 244 241 242 251 261 255 242 233 236 241 252 260
283 285 285 285 285 286 284 282 280 277 275 275 278 277 274 273 270 267 264 261 257 250 257 262 257 261 249 246 249 248 244 239 234 235 237 246 238 248 244 242 246 252 259
288 284 283 283 283 283 281 281 277 277 272 271 274 281 277 277 273 270 266 262 257 251 249 255 256 256 262 251 247 243 240 236 233 229 234 226 235 242 249 243 248 251 256
298 293 286 282 281 283 283 281 278 276 273 268 267 262 265 273 270 270 267 262 256 253 249 249 252 252 252 252 244 240 234 228 229 229 231 230 232 255 247 245 251 260 272
291 293 292 285 280 279 278 277 276 277 275 272 270 266 264 264 267 268 261 263 258 254 249 242 250 251 249 249 239 235 229 223 227 228 229 228 234 240 246 253 260 268 270
292 290 289 285 281 277 277 277 275 276 275 277 275 272 265 267 262 261 267 260 254 251 247 244 244 250 245 240 227 225 223 218 217 223 230 227 233 240 245 252 258 262 265
305 296 291 287 283 277 271 272 273 274 274 274 277 277 273 270 271 268 270 258 250 249 248 245 239 234 238 239 225 223 215 216 214 215 220 225 225 231 237 246 253 256 262
322 310 300 292 287 282 279 273 272 272 269 274 276 273 268 268 273 270 273 260 253 246 241 233 231 236 233 228 215 215 213 213 210 213 213 219 221 221 228 240 246 253 256
322 322 317 302 294 291 286 279 274 273 273 268 268 272 274 273 277 274 277 277 268 248 240 225 231 234 230 226 220 214 213 202 202 207 213 214 212 217 225 235 242 246 259
328 323 324 321 309 297 294 287 274 270 270 266 267 266 270 273 273 274 274 280 276 265 256 237 234 244 231 231 231 214 209 214 210 211 211 209 211 216 223 232 240 249 261
331 330 326 324 321 315 304 294 287 270 263 265 264 267 269 273 276 271 277 282 280 270 253 242 245 250 238 244 222 215 214 208 207 208 205 206 209 214 219 227 242 252 264
329 332 332 328 324 323 319 306 294 286 274 265 263 266 266 273 274 275 280 282 287 277 269 242 242 255 251 239 212 207 207 203 197 200 203 206 206 209 213 220 236 251 260
334 329 328 330 328 325 326 315 305 296 283 277 272 270 267 267 276 275 273 278 275 287 264 258 256 236 232 226 205 211 211 202 202 195 203 203 204 204 201 219 230 244 254